Flag for Germany Weather past 2 weeks in Amberg, Bavaria, Germany

Now
52 °F

Rain. Fog.


Feels Like: 51 °F
Forecast: 47 / 71 °F
Wind: 3 mph from Southwest

Location: Hohenfels

Current Time: Apr 26, 2015 at 5:38:34 AM

Latest Report: Apr 26, 2015 at 4:58 AM


Visibility: 6 mi

Pressure: 29.84 "Hg

Humidity: 100%

Dew point: 52 °F

Location of AmbergLocation

Historic Weather in Amberg — Graph

°F

Amberg temperature yesterday

Maximum temperature yesterday: 66 °F (at 12:58 PM)
Minimum temperature yesterday: 34 °F (at 4:58 AM)
Average temperature yesterday: 53 °F

Past Weeks' High & Low Weather Summary

 TemperatureHumidityPressure
High73 °F (Apr 15, 5:58 PM)100% (Apr 11, 6:58 AM)30.45 "Hg (Apr 11, 6:58 AM)
Low26 °F (Apr 19, 5:58 AM)20% (Apr 21, 4:58 PM)29.85 "Hg (Apr 26, 2:58 AM)
Average50 °F61%30.17 "Hg
* Reported Apr 11 4:58 AM — Apr 26 4:01 AM, Amberg, Weather by CustomWeather, © 2015

Note: Actual official high and low records may vary slightly from our data, if they occured in-between our weather recording intervals... More about our weather records

Advertising

Amberg weather history for previous 24 hours

 ConditionsComfort  
Time TempWeatherWind HumidityBarometerVisibility
4:01 AM
Sun, Apr 26
52 °FRain. Fog.2 mph100%29.86 "Hg4 mi
3:58 AM52 °FRain. Fog.1 mph100%29.85 "Hg4 mi
3:01 AM52 °FLight rain. Overcast.5 mph100%29.86 "HgN/A
2:58 AM52 °FOvercast.5 mph100%29.85 "HgN/A
1:58 AM52 °FOvercast.No wind100%29.85 "HgN/A
12:58 AM52 °FOvercast.No wind100%29.85 "HgN/A
11:58 PM
Sat, Apr 25
50 °FOvercast.2 mph100%29.86 "HgN/A
10:58 PM52 °FClear.1 mph100%29.87 "HgN/A
9:59 PM52 °FCool.N/A100%29.88 "HgN/A
8:58 PM54 °FLight rain. Overcast.3 mph94%29.89 "HgN/A
7:58 PM57 °FLight rain. Broken clouds.5 mph77%29.89 "HgN/A
6:58 PM61 °FLight rain. Scattered clouds.2 mph63%29.89 "HgN/A
6:03 PM63 °FBroken clouds.8 mph56%29.86 "HgN/A
5:58 PM63 °FLight rain. Broken clouds.8 mph56%29.88 "HgN/A
4:58 PM64 °FScattered clouds.9 mph46%29.86 "HgN/A
3:58 PM66 °FMostly cloudy.8 mph46%29.86 "HgN/A
2:58 PM64 °FBroken clouds.9 mph49%29.88 "HgN/A
1:58 PM64 °FPartly sunny.10 mph40%29.89 "HgN/A
12:58 PM66 °FBroken clouds.8 mph37%29.89 "HgN/A
11:58 AM64 °FScattered clouds.5 mph46%29.90 "HgN/A
10:58 AM59 °FScattered clouds.6 mph55%29.91 "HgN/A
9:58 AM55 °FSunny.7 mph59%29.91 "HgN/A
8:58 AM52 °FSunny.6 mph67%29.91 "HgN/A
7:58 AM45 °FSunny.3 mph76%29.91 "HgN/A
6:58 AM36 °FClear.1 mph87%29.91 "HgN/A
5:58 AM34 °FClear.1 mph93%29.91 "HgN/A
Weather by CustomWeather, © 2015

See weather overviewHow to use our weather pages